Year,Month,Day,Hour,Minute,Value (Times are PST for temperature in C)
2010,02,15,00,00,4.40
2010,02,15,00,01,4.40
2010,02,15,00,02,4.40
2010,02,15,00,03,4.40
2010,02,15,00,04,4.40
2010,02,15,00,06,4.40
2010,02,15,00,07,4.40
2010,02,15,00,08,4.40
2010,02,15,00,09,4.50
2010,02,15,00,12,4.60
2010,02,15,00,13,4.60
2010,02,15,00,14,4.60
2010,02,15,00,15,4.70
2010,02,15,00,17,4.70
2010,02,15,00,18,4.70
2010,02,15,00,20,4.70
2010,02,15,00,22,4.70
2010,02,15,00,23,4.80
2010,02,15,00,24,4.80
2010,02,15,00,25,4.80
2010,02,15,00,26,4.80
2010,02,15,00,28,4.80
2010,02,15,00,29,4.80
2010,02,15,00,30,4.80
2010,02,15,00,31,4.80
2010,02,15,00,32,4.80
2010,02,15,00,33,4.90
2010,02,15,00,34,4.90
2010,02,15,00,35,4.90
2010,02,15,00,37,4.90
2010,02,15,00,38,4.90
2010,02,15,00,39,5.00
2010,02,15,00,42,5.10
2010,02,15,00,43,5.20
2010,02,15,00,44,5.20
2010,02,15,00,45,5.30
2010,02,15,00,47,5.30
2010,02,15,00,48,5.30
2010,02,15,00,49,5.30
2010,02,15,00,52,5.40
2010,02,15,00,53,5.40
2010,02,15,00,54,5.40
2010,02,15,00,55,5.40
2010,02,15,00,57,5.40
2010,02,15,00,58,5.50
2010,02,15,01,00,5.50
2010,02,15,01,01,5.50
2010,02,15,01,03,5.60
2010,02,15,01,04,5.50
2010,02,15,01,05,5.50
2010,02,15,01,06,5.40
2010,02,15,01,07,5.40
2010,02,15,01,08,5.40
2010,02,15,01,10,5.40
2010,02,15,01,11,5.40
2010,02,15,01,12,5.30
2010,02,15,01,13,5.30
2010,02,15,01,14,5.30
2010,02,15,01,16,5.30
2010,02,15,01,17,5.30
2010,02,15,01,18,5.30
2010,02,15,01,20,5.30
2010,02,15,01,22,5.30
2010,02,15,01,23,5.30
2010,02,15,01,24,5.30
2010,02,15,01,25,5.30
2010,02,15,01,26,5.30
2010,02,15,01,28,5.30
2010,02,15,01,29,5.30
2010,02,15,01,30,5.30
2010,02,15,01,31,5.30
2010,02,15,01,32,5.30
2010,02,15,01,33,5.30
2010,02,15,01,35,5.30
2010,02,15,01,36,5.30
2010,02,15,01,37,5.30
2010,02,15,01,38,5.30
2010,02,15,01,39,5.30
2010,02,15,01,41,5.30
2010,02,15,01,42,5.30
2010,02,15,01,43,5.30
2010,02,15,01,44,5.30
2010,02,15,01,46,5.30
2010,02,15,01,47,5.30
2010,02,15,01,48,5.30
2010,02,15,01,50,5.30
2010,02,15,01,52,5.30
2010,02,15,01,53,5.30
2010,02,15,01,54,5.30
2010,02,15,01,55,5.30
2010,02,15,01,57,5.30
2010,02,15,01,58,5.30
2010,02,15,02,00,5.30
2010,02,15,02,01,5.30
2010,02,15,02,03,5.30
2010,02,15,02,04,5.30
2010,02,15,02,05,5.30
2010,02,15,02,06,5.30
2010,02,15,02,08,5.30
2010,02,15,02,10,5.30
2010,02,15,02,11,5.30
2010,02,15,02,13,5.30
2010,02,15,02,14,5.30
2010,02,15,02,15,5.30
2010,02,15,02,16,5.30
2010,02,15,02,18,5.30
2010,02,15,02,19,5.30
2010,02,15,02,20,5.30
2010,02,15,02,21,5.40
2010,02,15,02,22,5.30
2010,02,15,02,24,5.40
2010,02,15,02,25,5.40
2010,02,15,02,26,5.40
2010,02,15,02,28,5.40
2010,02,15,02,29,5.40
2010,02,15,02,30,5.40
2010,02,15,02,31,5.40
2010,02,15,02,32,5.40
2010,02,15,02,33,5.40
2010,02,15,02,34,5.50
2010,02,15,02,36,5.50
2010,02,15,02,37,5.50
2010,02,15,02,38,5.50
2010,02,15,02,39,5.60
2010,02,15,02,42,5.60
2010,02,15,02,43,5.60
2010,02,15,02,44,5.60
2010,02,15,02,45,5.60
2010,02,15,02,47,5.60
2010,02,15,02,48,5.60
2010,02,15,02,50,5.60
2010,02,15,02,51,5.70
2010,02,15,02,52,5.70
2010,02,15,02,54,5.70
2010,02,15,02,55,5.70
2010,02,15,02,56,5.70
2010,02,15,02,57,5.70
2010,02,15,02,59,5.70
2010,02,15,03,00,5.70
2010,02,15,03,01,5.70
2010,02,15,03,02,5.70
2010,02,15,03,04,5.70
2010,02,15,03,05,5.80
2010,02,15,03,06,5.80
2010,02,15,03,07,5.80
2010,02,15,03,08,5.80
2010,02,15,03,10,5.80
2010,02,15,03,11,5.80
2010,02,15,03,12,5.90
2010,02,15,03,13,5.90
2010,02,15,03,14,5.90
2010,02,15,03,16,5.90
2010,02,15,03,17,5.90
2010,02,15,03,18,5.90
2010,02,15,03,19,6.00
2010,02,15,03,22,6.00
2010,02,15,03,23,6.00
2010,02,15,03,24,6.10
2010,02,15,03,25,6.10
2010,02,15,03,27,6.10
2010,02,15,03,28,6.10
2010,02,15,03,30,6.10
2010,02,15,03,31,6.10
2010,02,15,03,32,6.10
2010,02,15,03,34,6.10
2010,02,15,03,35,6.10
2010,02,15,03,36,6.20
2010,02,15,03,37,6.20
2010,02,15,03,38,6.20
2010,02,15,03,40,6.20
2010,02,15,03,41,6.20
2010,02,15,03,42,6.20
2010,02,15,03,43,6.20
2010,02,15,03,44,6.20
2010,02,15,03,46,6.20
2010,02,15,03,47,6.20
2010,02,15,03,48,6.20
2010,02,15,03,49,6.20
2010,02,15,03,52,6.20
2010,02,15,03,53,6.20
2010,02,15,03,54,6.20
2010,02,15,03,55,6.20
2010,02,15,03,57,6.20
2010,02,15,03,58,6.20
2010,02,15,03,59,6.20
2010,02,15,04,02,6.20
2010,02,15,04,03,6.20
2010,02,15,04,04,6.20
2010,02,15,04,05,6.20
2010,02,15,04,07,6.20
2010,02,15,04,08,6.20
2010,02,15,04,10,6.20
2010,02,15,04,11,6.10
2010,02,15,04,12,6.10
2010,02,15,04,14,6.10
2010,02,15,04,15,6.10
2010,02,15,04,16,6.10
2010,02,15,04,17,6.10
2010,02,15,04,18,6.10
2010,02,15,04,20,6.10
2010,02,15,04,21,6.10
2010,02,15,04,22,6.10
2010,02,15,04,23,6.10
2010,02,15,04,24,6.10
2010,02,15,04,25,6.10
2010,02,15,04,27,6.10
2010,02,15,04,28,6.10
2010,02,15,04,30,6.10
2010,02,15,04,31,6.10
2010,02,15,04,32,6.10
2010,02,15,04,34,6.10
2010,02,15,04,35,6.10
2010,02,15,04,36,6.10
2010,02,15,04,37,6.10
2010,02,15,04,39,6.10
2010,02,15,04,40,6.10
2010,02,15,04,41,6.10
2010,02,15,04,42,6.20
2010,02,15,04,43,6.20
2010,02,15,04,45,6.20
2010,02,15,04,46,6.20
2010,02,15,04,47,6.20
2010,02,15,04,48,6.20
2010,02,15,04,50,6.20
2010,02,15,04,51,6.20
2010,02,15,04,52,6.20
2010,02,15,04,53,6.20
2010,02,15,04,54,6.20
2010,02,15,04,56,6.20
2010,02,15,04,57,6.20
2010,02,15,04,58,6.20
2010,02,15,04,59,6.20
2010,02,15,05,01,6.20
2010,02,15,05,02,6.20
2010,02,15,05,03,6.20
2010,02,15,05,04,6.20
2010,02,15,05,06,6.20
2010,02,15,05,07,6.20
2010,02,15,05,08,6.20
2010,02,15,05,09,6.20
2010,02,15,05,11,6.20
2010,02,15,05,12,6.20
2010,02,15,05,13,6.20
2010,02,15,05,14,6.20
2010,02,15,05,16,6.20
2010,02,15,05,17,6.20
2010,02,15,05,18,6.20
2010,02,15,05,20,6.20
2010,02,15,05,21,6.20
2010,02,15,05,23,6.20
2010,02,15,05,24,6.20
2010,02,15,05,25,6.20
2010,02,15,05,26,6.20
2010,02,15,05,27,6.20
2010,02,15,05,29,6.20
2010,02,15,05,30,6.20
2010,02,15,05,32,6.20
2010,02,15,05,33,6.20
2010,02,15,05,34,6.20
2010,02,15,05,35,6.20
2010,02,15,05,37,6.20
2010,02,15,05,38,6.20
2010,02,15,05,40,6.20
2010,02,15,05,42,6.20
2010,02,15,05,43,6.20
2010,02,15,05,44,6.20
2010,02,15,05,45,6.20
2010,02,15,05,46,6.20
2010,02,15,05,48,6.20
2010,02,15,05,50,6.20
2010,02,15,05,51,6.20
2010,02,15,05,53,6.30
2010,02,15,05,54,6.30
2010,02,15,05,55,6.30
2010,02,15,05,56,6.30
2010,02,15,05,57,6.30
2010,02,15,05,58,6.30
2010,02,15,06,00,6.30
2010,02,15,06,01,6.30
2010,02,15,06,02,6.30
2010,02,15,06,03,6.30
2010,02,15,06,04,6.30
2010,02,15,06,06,6.30
2010,02,15,06,07,6.30
2010,02,15,06,08,6.30
2010,02,15,06,10,6.20
2010,02,15,06,12,6.20
2010,02,15,06,13,6.30
2010,02,15,06,14,6.20
2010,02,15,06,15,6.20
2010,02,15,06,17,6.20
2010,02,15,06,18,6.20
2010,02,15,06,20,6.20
2010,02,15,06,21,6.20
2010,02,15,06,23,6.20
2010,02,15,06,24,6.20
2010,02,15,06,25,6.20
2010,02,15,06,26,6.20
2010,02,15,06,28,6.20
2010,02,15,06,29,6.20
2010,02,15,06,30,6.20
2010,02,15,06,31,6.20
2010,02,15,06,32,6.30
2010,02,15,06,33,6.20
2010,02,15,06,35,6.20
2010,02,15,06,36,6.20
2010,02,15,06,37,6.30
2010,02,15,06,38,6.30
2010,02,15,06,39,6.30
2010,02,15,06,41,6.30
2010,02,15,06,42,6.30
2010,02,15,06,43,6.30
2010,02,15,06,44,6.20
2010,02,15,06,45,6.30
2010,02,15,06,47,6.20
2010,02,15,06,48,6.20
2010,02,15,06,50,6.20
2010,02,15,06,52,6.20
2010,02,15,06,53,6.20
2010,02,15,06,54,6.20
2010,02,15,06,55,6.20
2010,02,15,06,56,6.20
2010,02,15,06,58,6.20
2010,02,15,07,00,6.20
2010,02,15,07,01,6.20
2010,02,15,07,03,6.20
2010,02,15,07,04,6.20
2010,02,15,07,05,6.20
2010,02,15,07,06,6.20
2010,02,15,07,08,6.20
2010,02,15,07,10,6.20
2010,02,15,07,11,6.20
2010,02,15,07,13,6.20
2010,02,15,07,14,6.20
2010,02,15,07,15,6.20
2010,02,15,07,16,6.20
2010,02,15,07,17,6.20
2010,02,15,07,19,6.20
2010,02,15,07,20,6.20
2010,02,15,07,21,6.20
2010,02,15,07,22,6.20
2010,02,15,07,23,6.20
2010,02,15,07,25,6.20
2010,02,15,07,26,6.30
2010,02,15,07,27,6.30
2010,02,15,07,28,6.30
2010,02,15,07,30,6.30
2010,02,15,07,31,6.30
2010,02,15,07,33,6.30
2010,02,15,07,34,6.30
2010,02,15,07,35,6.30
2010,02,15,07,36,6.30
2010,02,15,07,38,6.30
2010,02,15,07,39,6.30
2010,02,15,07,40,6.30
2010,02,15,07,41,6.30
2010,02,15,07,42,6.30
2010,02,15,07,44,6.30
2010,02,15,07,45,6.30
2010,02,15,07,46,6.30
2010,02,15,07,47,6.40
2010,02,15,07,49,6.40
2010,02,15,07,50,6.40
2010,02,15,07,51,6.40
2010,02,15,07,52,6.40
2010,02,15,07,54,6.40
2010,02,15,07,55,6.40
2010,02,15,07,57,6.50
2010,02,15,07,58,6.50
2010,02,15,08,00,6.50
2010,02,15,08,01,6.50
2010,02,15,08,02,6.50
2010,02,15,08,03,6.60
2010,02,15,08,04,6.60
2010,02,15,08,06,6.60
2010,02,15,08,07,6.60
2010,02,15,08,08,6.60
2010,02,15,08,09,6.60
2010,02,15,08,11,6.60
2010,02,15,08,12,6.60
2010,02,15,08,13,6.70
2010,02,15,08,14,6.70
2010,02,15,08,16,6.70
2010,02,15,08,17,6.70
2010,02,15,08,18,6.70
2010,02,15,08,20,6.70
2010,02,15,08,22,6.70
2010,02,15,08,23,6.70
2010,02,15,08,24,6.70
2010,02,15,08,25,6.80
2010,02,15,08,26,6.80
2010,02,15,08,28,6.80
2010,02,15,08,31,6.80
2010,02,15,08,32,6.80
2010,02,15,08,33,6.80
2010,02,15,08,34,6.80
2010,02,15,08,35,6.80
2010,02,15,08,37,6.80
2010,02,15,08,38,6.90
2010,02,15,08,40,6.90
2010,02,15,08,42,6.90
2010,02,15,08,43,6.90
2010,02,15,08,44,6.90
2010,02,15,08,45,6.90
2010,02,15,08,46,6.90
2010,02,15,08,48,6.90
2010,02,15,08,50,6.90
2010,02,15,08,51,6.90
2010,02,15,08,52,6.90
2010,02,15,08,54,7.00
2010,02,15,08,55,7.00
2010,02,15,08,56,7.00
2010,02,15,08,57,7.00
2010,02,15,08,58,7.10
2010,02,15,09,00,7.10
2010,02,15,09,02,7.10
2010,02,15,09,03,7.10
2010,02,15,09,04,7.10
2010,02,15,09,05,7.10
2010,02,15,09,07,7.10
2010,02,15,09,08,7.10
2010,02,15,09,10,7.10
2010,02,15,09,12,7.10
2010,02,15,09,13,7.10
2010,02,15,09,14,7.20
2010,02,15,09,15,7.20
2010,02,15,09,17,7.20
2010,02,15,09,18,7.20
2010,02,15,09,20,7.20
2010,02,15,09,22,7.30
2010,02,15,09,23,7.30
2010,02,15,09,24,7.30
2010,02,15,09,25,7.30
2010,02,15,09,26,7.30
2010,02,15,09,28,7.30
2010,02,15,09,30,7.30
2010,02,15,09,31,7.40
2010,02,15,09,32,7.40
2010,02,15,09,33,7.40
2010,02,15,09,35,7.40
2010,02,15,09,36,7.40
2010,02,15,09,37,7.40
2010,02,15,09,38,7.40
2010,02,15,09,40,7.50
2010,02,15,09,41,7.50
2010,02,15,09,42,7.50
2010,02,15,09,43,7.60
2010,02,15,09,44,7.60
2010,02,15,09,46,7.60
2010,02,15,09,47,7.60
2010,02,15,09,48,7.60
2010,02,15,09,50,7.60
2010,02,15,09,51,7.60
2010,02,15,09,53,7.60
2010,02,15,09,54,7.60
2010,02,15,09,55,7.60
2010,02,15,09,56,7.60
2010,02,15,09,58,7.60
2010,02,15,10,00,7.60
2010,02,15,10,01,7.60
2010,02,15,10,03,7.70
2010,02,15,10,04,7.70
2010,02,15,10,05,7.70
2010,02,15,10,06,7.70
2010,02,15,10,07,7.70
2010,02,15,10,09,7.70
2010,02,15,10,10,7.70
2010,02,15,10,11,7.70
2010,02,15,10,12,7.70
2010,02,15,10,13,7.70
2010,02,15,10,15,7.80
2010,02,15,10,16,7.80
2010,02,15,10,17,7.80
2010,02,15,10,18,7.80
2010,02,15,10,20,7.80
2010,02,15,10,21,7.80
2010,02,15,10,22,7.90
2010,02,15,10,23,7.90
2010,02,15,10,24,7.90
2010,02,15,10,26,7.90
2010,02,15,10,27,7.90
2010,02,15,10,28,7.90
2010,02,15,10,30,8.10
2010,02,15,10,31,8.10
2010,02,15,10,33,8.20
2010,02,15,10,34,8.20
2010,02,15,10,35,8.30
2010,02,15,10,36,8.30
2010,02,15,10,37,8.30
2010,02,15,10,39,8.20
2010,02,15,10,40,8.20
2010,02,15,10,41,8.20
2010,02,15,10,42,8.20
2010,02,15,10,43,8.20
2010,02,15,10,45,8.20
2010,02,15,10,46,8.20
2010,02,15,10,47,8.20
2010,02,15,10,48,8.20
2010,02,15,10,50,8.20
2010,02,15,10,51,8.30
2010,02,15,10,52,8.20
2010,02,15,10,53,8.20
2010,02,15,10,54,8.20
2010,02,15,10,56,8.20
2010,02,15,10,57,8.20
2010,02,15,10,58,8.20
2010,02,15,11,00,8.30
2010,02,15,11,03,8.30
2010,02,15,11,04,8.40
2010,02,15,11,05,8.40
2010,02,15,11,06,8.40
2010,02,15,11,08,8.40
2010,02,15,11,09,8.40
2010,02,15,11,10,8.40
2010,02,15,11,11,8.40
2010,02,15,11,12,8.40
2010,02,15,11,14,8.40
2010,02,15,11,15,8.40
2010,02,15,11,16,8.40
2010,02,15,11,17,8.30
2010,02,15,11,19,8.30
2010,02,15,11,20,8.30
2010,02,15,11,21,8.40
2010,02,15,11,22,8.40
2010,02,15,11,23,8.40
2010,02,15,11,25,8.40
2010,02,15,11,26,8.40
2010,02,15,11,27,8.40
2010,02,15,11,28,8.40
2010,02,15,11,30,8.50
2010,02,15,11,33,8.60
2010,02,15,11,34,8.60
2010,02,15,11,35,8.60
2010,02,15,11,36,8.60
2010,02,15,11,38,8.60
2010,02,15,11,39,8.60
2010,02,15,11,40,8.60
2010,02,15,11,41,8.70
2010,02,15,11,42,8.70
2010,02,15,11,44,8.70
2010,02,15,11,45,8.80
2010,02,15,11,46,8.90
2010,02,15,11,47,8.90
2010,02,15,11,48,9.00
2010,02,15,11,50,9.10
2010,02,15,11,51,9.20
2010,02,15,11,52,9.20
2010,02,15,11,53,9.30
2010,02,15,11,54,9.30
2010,02,15,11,56,9.40
2010,02,15,11,57,9.40
2010,02,15,11,58,9.40
2010,02,15,11,59,9.40
2010,02,15,12,02,9.60
2010,02,15,12,03,9.60
2010,02,15,12,04,9.60
2010,02,15,12,06,9.40
2010,02,15,12,07,9.30
2010,02,15,12,08,9.30
2010,02,15,12,09,9.30
2010,02,15,12,12,9.30
2010,02,15,12,13,9.30
2010,02,15,12,14,9.30
2010,02,15,12,15,9.30
2010,02,15,12,17,9.30
2010,02,15,12,18,9.30
2010,02,15,12,20,9.30
2010,02,15,12,21,9.20
2010,02,15,12,23,9.20
2010,02,15,12,24,9.20
2010,02,15,12,25,9.20
2010,02,15,12,26,9.20
2010,02,15,12,27,9.30
2010,02,15,12,29,9.30
2010,02,15,12,30,9.30
2010,02,15,12,32,9.30
2010,02,15,12,33,9.40
2010,02,15,12,34,9.40
2010,02,15,12,36,9.50
2010,02,15,12,37,9.60
2010,02,15,12,38,9.70
2010,02,15,12,39,9.70
2010,02,15,12,41,9.80
2010,02,15,12,42,9.80
2010,02,15,12,43,9.90
2010,02,15,12,44,10.00
2010,02,15,12,46,10.10
2010,02,15,12,47,10.10
2010,02,15,12,48,10.20
2010,02,15,12,50,10.20
2010,02,15,12,52,10.30
2010,02,15,12,53,10.20
2010,02,15,12,54,10.20
2010,02,15,12,55,10.20
2010,02,15,12,56,10.20
2010,02,15,12,58,10.20
2010,02,15,13,00,10.30
2010,02,15,13,03,10.20
2010,02,15,13,04,10.10
2010,02,15,13,05,10.00
2010,02,15,13,06,9.90
2010,02,15,13,08,9.90
2010,02,15,13,09,9.80
2010,02,15,13,10,9.80
2010,02,15,13,11,9.80
2010,02,15,13,12,9.70
2010,02,15,13,13,9.70
2010,02,15,13,15,9.70
2010,02,15,13,16,9.70
2010,02,15,13,17,9.70
2010,02,15,13,18,9.70
2010,02,15,13,20,9.70
2010,02,15,13,21,9.70
2010,02,15,13,22,9.60
2010,02,15,13,23,9.60
2010,02,15,13,24,9.60
2010,02,15,13,26,9.60
2010,02,15,13,27,9.60
2010,02,15,13,28,9.60
2010,02,15,13,30,9.50
2010,02,15,13,32,9.60
2010,02,15,13,34,9.60
2010,02,15,13,35,9.60
2010,02,15,13,36,9.60
2010,02,15,13,37,9.60
2010,02,15,13,39,9.60
2010,02,15,13,40,9.60
2010,02,15,13,41,9.60
2010,02,15,13,42,9.60
2010,02,15,13,44,9.70
2010,02,15,13,45,9.70
2010,02,15,13,46,9.70
2010,02,15,13,47,9.70
2010,02,15,13,48,9.70
2010,02,15,13,50,9.70
2010,02,15,13,51,9.60
2010,02,15,13,52,9.60
2010,02,15,13,53,9.60
2010,02,15,13,54,9.50
2010,02,15,13,56,9.40
2010,02,15,13,57,9.30
2010,02,15,13,58,9.30
2010,02,15,14,00,9.20
2010,02,15,14,02,9.20
2010,02,15,14,03,9.10
2010,02,15,14,04,9.10
2010,02,15,14,06,9.10
2010,02,15,14,07,9.10
2010,02,15,14,08,9.10
2010,02,15,14,10,9.10
2010,02,15,14,12,9.10
2010,02,15,14,13,9.00
2010,02,15,14,14,8.90
2010,02,15,14,15,8.90
2010,02,15,14,17,8.90
2010,02,15,14,18,8.80
2010,02,15,14,20,8.80
2010,02,15,14,21,8.70
2010,02,15,14,22,8.70
2010,02,15,14,24,8.70
2010,02,15,14,25,8.70
2010,02,15,14,26,8.60
2010,02,15,14,27,8.60
2010,02,15,14,28,8.60
2010,02,15,14,30,8.60
2010,02,15,14,32,8.70
2010,02,15,14,33,8.60
2010,02,15,14,34,8.60
2010,02,15,14,35,8.60
2010,02,15,14,37,8.60
2010,02,15,14,38,8.50
2010,02,15,14,40,8.60
2010,02,15,14,41,8.60
2010,02,15,14,42,8.60
2010,02,15,14,44,8.60
2010,02,15,14,45,8.60
2010,02,15,14,46,8.50
2010,02,15,14,47,8.50
2010,02,15,14,49,8.50
2010,02,15,14,50,8.40
2010,02,15,14,51,8.40
2010,02,15,14,52,8.40
2010,02,15,14,54,8.40
2010,02,15,14,55,8.40
2010,02,15,14,56,8.40
2010,02,15,14,57,8.40
2010,02,15,14,58,8.40
2010,02,15,15,00,8.40
2010,02,15,15,01,8.40
2010,02,15,15,02,8.40
2010,02,15,15,03,8.40
2010,02,15,15,04,8.30
2010,02,15,15,06,8.30
2010,02,15,15,07,8.30
2010,02,15,15,08,8.30
2010,02,15,15,10,8.30
2010,02,15,15,12,8.30
2010,02,15,15,13,8.30
2010,02,15,15,14,8.40
2010,02,15,15,15,8.30
2010,02,15,15,16,8.30
2010,02,15,15,18,8.30
2010,02,15,15,19,8.30
2010,02,15,15,20,8.30
2010,02,15,15,21,8.30
2010,02,15,15,22,8.30
2010,02,15,15,24,8.30
2010,02,15,15,25,8.30
2010,02,15,15,26,8.40
2010,02,15,15,27,8.40
2010,02,15,15,28,8.40
2010,02,15,15,30,8.40
2010,02,15,15,31,8.40
2010,02,15,15,32,8.40
2010,02,15,15,33,8.40
2010,02,15,15,34,8.40
2010,02,15,15,35,8.40
2010,02,15,15,37,8.40
2010,02,15,15,38,8.40
2010,02,15,15,40,8.40
2010,02,15,15,42,8.30
2010,02,15,15,43,8.30
2010,02,15,15,44,8.30
2010,02,15,15,45,8.30
2010,02,15,15,46,8.30
2010,02,15,15,48,8.30
2010,02,15,15,50,8.30
2010,02,15,15,51,8.30
2010,02,15,15,52,8.30
2010,02,15,15,54,8.30
2010,02,15,15,55,8.30
2010,02,15,15,56,8.30
2010,02,15,15,57,8.30
2010,02,15,15,59,8.30
2010,02,15,16,00,8.30
2010,02,15,16,01,8.30
2010,02,15,16,02,8.30
2010,02,15,16,03,8.30
2010,02,15,16,05,8.30
2010,02,15,16,06,8.30
2010,02,15,16,07,8.30
2010,02,15,16,08,8.30
2010,02,15,16,10,8.30
2010,02,15,16,12,8.30
2010,02,15,16,13,8.30
2010,02,15,16,14,8.30
2010,02,15,16,15,8.30
2010,02,15,16,17,8.30
2010,02,15,16,18,8.30
2010,02,15,16,20,8.30
2010,02,15,16,21,8.20
2010,02,15,16,23,8.20
2010,02,15,16,24,8.20
2010,02,15,16,25,8.20
2010,02,15,16,26,8.20
2010,02,15,16,27,8.20
2010,02,15,16,29,8.20
2010,02,15,16,30,8.20
2010,02,15,16,31,8.20
2010,02,15,16,32,8.20
2010,02,15,16,33,8.20
2010,02,15,16,35,8.20
2010,02,15,16,36,8.20
2010,02,15,16,37,8.20
2010,02,15,16,38,8.20
2010,02,15,16,40,8.20
2010,02,15,16,42,8.20
2010,02,15,16,43,8.20
2010,02,15,16,44,8.20
2010,02,15,16,45,8.20
2010,02,15,16,47,8.20
2010,02,15,16,48,8.20
2010,02,15,16,50,8.20
2010,02,15,16,52,8.20
2010,02,15,16,53,8.20
2010,02,15,16,54,8.20
2010,02,15,16,55,8.20
2010,02,15,16,56,8.20
2010,02,15,16,57,8.10
2010,02,15,16,59,8.10
2010,02,15,17,00,8.10
2010,02,15,17,01,8.10
2010,02,15,17,02,8.10
2010,02,15,17,04,8.10
2010,02,15,17,05,8.10
2010,02,15,17,06,8.10
2010,02,15,17,07,8.10
2010,02,15,17,08,8.10
2010,02,15,17,10,8.10
2010,02,15,17,11,8.10
2010,02,15,17,12,8.10
2010,02,15,17,13,8.10
2010,02,15,17,14,8.00
2010,02,15,17,15,8.00
2010,02,15,17,17,8.00
2010,02,15,17,18,8.00
2010,02,15,17,20,8.00
2010,02,15,17,22,8.00
2010,02,15,17,23,8.00
2010,02,15,17,24,8.00
2010,02,15,17,25,7.90
2010,02,15,17,27,7.90
2010,02,15,17,28,7.90
2010,02,15,17,31,7.90
2010,02,15,17,32,7.90
2010,02,15,17,33,7.90
2010,02,15,17,34,7.90
2010,02,15,17,36,7.90
2010,02,15,17,37,7.90
2010,02,15,17,38,7.90
2010,02,15,17,40,7.90
2010,02,15,17,42,7.90
2010,02,15,17,43,7.90
2010,02,15,17,44,7.90
2010,02,15,17,45,7.90
2010,02,15,17,46,7.90
2010,02,15,17,48,7.90
2010,02,15,17,49,7.90
2010,02,15,17,50,7.90
2010,02,15,17,51,7.90
2010,02,15,17,52,7.90
2010,02,15,17,53,7.90
2010,02,15,17,55,7.90
2010,02,15,17,56,7.90
2010,02,15,17,57,7.90
2010,02,15,17,58,7.90
2010,02,15,18,00,7.90
2010,02,15,18,01,7.90
2010,02,15,18,02,7.80
2010,02,15,18,03,7.80
2010,02,15,18,04,7.80
2010,02,15,18,06,7.80
2010,02,15,18,07,7.80
2010,02,15,18,08,7.80
2010,02,15,18,10,7.80
2010,02,15,18,12,7.80
2010,02,15,18,13,7.80
2010,02,15,18,14,7.80
2010,02,15,18,15,7.80
2010,02,15,18,16,7.80
2010,02,15,18,18,7.80
2010,02,15,18,19,7.80
2010,02,15,18,20,7.80
2010,02,15,18,21,7.80
2010,02,15,18,22,7.80
2010,02,15,18,24,7.80
2010,02,15,18,25,7.80
2010,02,15,18,26,7.80
2010,02,15,18,27,7.80
2010,02,15,18,29,7.80
2010,02,15,18,30,7.80
2010,02,15,18,31,7.80
2010,02,15,18,32,7.80
2010,02,15,18,33,7.80
2010,02,15,18,34,7.80
2010,02,15,18,36,7.80
2010,02,15,18,37,7.80
2010,02,15,18,38,7.80
2010,02,15,18,40,7.80
2010,02,15,18,42,7.80
2010,02,15,18,43,7.80
2010,02,15,18,44,7.90
2010,02,15,18,45,7.90
2010,02,15,18,47,7.90
2010,02,15,18,48,7.90
2010,02,15,18,50,7.90
2010,02,15,18,51,7.80
2010,02,15,18,53,7.90
2010,02,15,18,54,7.90
2010,02,15,18,55,7.90
2010,02,15,18,56,7.90
2010,02,15,18,57,7.90
2010,02,15,18,59,7.90
2010,02,15,19,00,7.80
2010,02,15,19,02,7.70
2010,02,15,19,04,7.60
2010,02,15,19,05,7.60
2010,02,15,19,06,7.50
2010,02,15,19,07,7.50
2010,02,15,19,08,7.40
2010,02,15,19,09,7.40
2010,02,15,19,11,7.40
2010,02,15,19,12,7.40
2010,02,15,19,13,7.40
2010,02,15,19,14,7.40
2010,02,15,19,16,7.40
2010,02,15,19,17,7.40
2010,02,15,19,18,7.40
2010,02,15,19,19,7.40
2010,02,15,19,22,7.40
2010,02,15,19,23,7.40
2010,02,15,19,24,7.40
2010,02,15,19,25,7.40
2010,02,15,19,27,7.40
2010,02,15,19,28,7.40
2010,02,15,19,30,7.40
2010,02,15,19,31,7.40
2010,02,15,19,32,7.40
2010,02,15,19,33,7.40
2010,02,15,19,34,7.40
2010,02,15,19,36,7.40
2010,02,15,19,37,7.40
2010,02,15,19,38,7.40
2010,02,15,19,39,7.40
2010,02,15,19,42,7.50
2010,02,15,19,43,7.40
2010,02,15,19,44,7.50
2010,02,15,19,46,7.50
2010,02,15,19,47,7.50
2010,02,15,19,48,7.50
2010,02,15,19,50,7.50
2010,02,15,19,52,7.50
2010,02,15,19,53,7.50
2010,02,15,19,54,7.50
2010,02,15,19,55,7.60
2010,02,15,19,57,7.60
2010,02,15,19,58,7.60
2010,02,15,20,00,7.60
2010,02,15,20,01,7.60
2010,02,15,20,02,7.60
2010,02,15,20,04,7.60
2010,02,15,20,05,7.60
2010,02,15,20,06,7.60
2010,02,15,20,07,7.60
2010,02,15,20,08,7.60
2010,02,15,20,10,7.60
2010,02,15,20,11,7.60
2010,02,15,20,12,7.60
2010,02,15,20,13,7.60
2010,02,15,20,15,7.60
2010,02,15,20,16,7.60
2010,02,15,20,17,7.60
2010,02,15,20,18,7.60
2010,02,15,20,19,7.60
2010,02,15,20,22,7.60
2010,02,15,20,23,7.60
2010,02,15,20,24,7.60
2010,02,15,20,25,7.60
2010,02,15,20,26,7.70
2010,02,15,20,28,7.70
2010,02,15,20,30,7.70
2010,02,15,20,31,7.70
2010,02,15,20,32,7.70
2010,02,15,20,34,7.70
2010,02,15,20,35,7.70
2010,02,15,20,36,7.80
2010,02,15,20,37,7.80
2010,02,15,20,39,7.80
2010,02,15,20,40,7.80
2010,02,15,20,41,7.80
2010,02,15,20,42,7.80
2010,02,15,20,43,7.80
2010,02,15,20,45,7.80
2010,02,15,20,46,7.80
2010,02,15,20,47,7.80
2010,02,15,20,48,7.80
2010,02,15,20,50,7.80
2010,02,15,20,51,7.80
2010,02,15,20,52,7.90
2010,02,15,20,53,7.90
2010,02,15,20,54,7.90
2010,02,15,20,55,7.90
2010,02,15,20,57,7.90
2010,02,15,20,58,8.00
2010,02,15,20,59,7.90
2010,02,15,21,03,8.10
2010,02,15,21,04,8.10
2010,02,15,21,05,8.10
2010,02,15,21,06,8.10
2010,02,15,21,08,8.10
2010,02,15,21,10,8.10
2010,02,15,21,11,8.10
2010,02,15,21,12,8.10
2010,02,15,21,14,8.10
2010,02,15,21,15,8.10
2010,02,15,21,16,8.10
2010,02,15,21,17,8.10
2010,02,15,21,19,8.10
2010,02,15,21,20,8.10
2010,02,15,21,21,8.20
2010,02,15,21,22,8.20
2010,02,15,21,23,8.20
2010,02,15,21,25,8.20
2010,02,15,21,26,8.20
2010,02,15,21,27,8.20
2010,02,15,21,28,8.20
2010,02,15,21,29,8.20
2010,02,15,21,32,8.30
2010,02,15,21,33,8.30
2010,02,15,21,34,8.30
2010,02,15,21,35,8.40
2010,02,15,21,36,8.40
2010,02,15,21,37,8.40
2010,02,15,21,39,8.50
2010,02,15,21,40,8.50
2010,02,15,21,41,8.50
2010,02,15,21,42,8.50
2010,02,15,21,43,8.50
2010,02,15,21,45,8.50
2010,02,15,21,46,8.60
2010,02,15,21,47,8.60
2010,02,15,21,48,8.60
2010,02,15,21,50,8.60
2010,02,15,21,51,8.60
2010,02,15,21,52,8.60
2010,02,15,21,53,8.60
2010,02,15,21,54,8.60
2010,02,15,21,55,8.60
2010,02,15,21,57,8.60
2010,02,15,21,58,8.50
2010,02,15,22,00,8.50
2010,02,15,22,02,8.40
2010,02,15,22,03,8.40
2010,02,15,22,04,8.40
2010,02,15,22,05,8.50
2010,02,15,22,06,8.50
2010,02,15,22,07,8.50
2010,02,15,22,09,8.50
2010,02,15,22,10,8.40
2010,02,15,22,11,8.50
2010,02,15,22,12,8.40
2010,02,15,22,14,8.50
2010,02,15,22,15,8.50
2010,02,15,22,16,8.50
2010,02,15,22,17,8.50
2010,02,15,22,18,8.50
2010,02,15,22,20,8.50
2010,02,15,22,21,8.60
2010,02,15,22,22,8.60
2010,02,15,22,23,8.60
2010,02,15,22,24,8.60
2010,02,15,22,26,8.60
2010,02,15,22,27,8.70
2010,02,15,22,28,8.70
2010,02,15,22,29,8.70
2010,02,15,22,33,8.80
2010,02,15,22,34,8.80
2010,02,15,22,35,8.70
2010,02,15,22,36,8.70
2010,02,15,22,38,8.70
2010,02,15,22,39,8.80
2010,02,15,22,40,8.80
2010,02,15,22,41,8.70
2010,02,15,22,42,8.80
2010,02,15,22,44,8.80
2010,02,15,22,45,8.90
2010,02,15,22,46,8.90
2010,02,15,22,47,8.90
2010,02,15,22,49,8.90
2010,02,15,22,50,8.90
2010,02,15,22,51,8.90
2010,02,15,22,52,8.90
2010,02,15,22,53,9.00
2010,02,15,22,55,9.00
2010,02,15,22,56,8.90
2010,02,15,22,57,9.00
2010,02,15,22,58,9.00
2010,02,15,22,59,9.00
2010,02,15,23,01,9.00
2010,02,15,23,02,9.00
2010,02,15,23,03,9.00
2010,02,15,23,04,9.00
2010,02,15,23,06,9.00
2010,02,15,23,07,9.00
2010,02,15,23,08,9.00
2010,02,15,23,09,9.10
2010,02,15,23,12,9.00
2010,02,15,23,13,9.10
2010,02,15,23,14,9.10
2010,02,15,23,15,9.10
2010,02,15,23,17,9.10
2010,02,15,23,18,9.10
2010,02,15,23,20,9.10
2010,02,15,23,21,9.10
2010,02,15,23,23,9.10
2010,02,15,23,24,9.20
2010,02,15,23,25,9.10
2010,02,15,23,26,9.20
2010,02,15,23,27,9.10
2010,02,15,23,29,9.10
2010,02,15,23,30,9.10
2010,02,15,23,31,9.10
2010,02,15,23,32,9.20
2010,02,15,23,33,9.10
2010,02,15,23,35,9.10
2010,02,15,23,36,9.10
2010,02,15,23,37,9.10